Temperature
21 21 21 21 18 16 18 19 19 19 19 19 19 18 18 17 17 17 17 17 17 17 17 17 17 17 17 17 17 17 17 17 17 17 17 17 17 17 17 17 17 17 17 17 17 17 17 17 17
21 21 21 20 17 17 18 19 19 19 19 19 19 18 17 17 17 17 17 17 17 17 17 17 17 17 17 17 17 17 17 17 17 17 17 17 17 17 17 17 17 17 17 17 17 17 17 17 17
21 21 21 17 17 17 19 19 19 19 20 19 18 18 17 17 17 17 17 17 17 17 17 17 17 17 17 17 17 17 17 17 17 17 17 17 17 16 17 17 17 17 17 16 16 16 16 16 16
21 21 20 17 18 18 19 19 19 19 20 19 18 17 17 17 17 17 17 17 17 17 17 17 17 17 17 17 17 16 17 17 16 16 17 17 16 16 16 16 16 16 16 16 16 16 16 16 16
21 21 17 17 18 19 19 19 20 19 19 19 18 17 17 17 17 17 17 17 17 17 17 17 17 17 17 17 16 16 17 16 16 16 16 16 16 16 16 16 16 16 16 16 16 16 16 16 16
21 18 17 17 19 19 19 20 20 19 19 18 18 17 17 17 17 17 17 17 17 17 17 17 17 17 16 16 16 16 16 16 16 16 16 16 16 16 16 16 16 16 16 16 16 16 16 16 16
20 16 17 18 18 19 20 20 20 19 19 19 18 17 17 17 17 17 17 17 17 17 17 17 17 16 16 16 16 16 16 16 16 16 16 16 16 16 16 16 16 16 16 16 16 16 16 16 16
21 16 18 17 18 19 20 20 20 20 19 19 19 17 17 17 17 17 17 17 17 17 17 17 16 16 16 16 16 16 16 16 16 16 16 16 16 16 16 16 16 16 16 16 16 16 16 16 16
21 17 17 18 18 19 20 20 20 20 19 18 18 18 18 18 17 17 17 17 16 16 16 16 16 16 16 16 16 16 16 16 16 16 16 16 16 16 16 16 16 16 16 16 16 16 16 16 16
20 17 19 19 19 19 20 20 20 19 18 18 18 18 18 18 18 17 17 17 17 16 16 16 16 16 16 16 16 16 16 16 16 16 16 16 16 15 15 15 15 15 16 15 15 15 15 16 15
19 18 19 20 20 20 20 20 20 19 18 18 19 18 18 18 17 17 17 17 17 17 16 16 16 16 16 16 16 16 16 15 15 15 15 15 15 15 15 15 15 15 15 15 15 15 15 15 15
19 20 20 20 21 20 20 20 19 19 19 20 20 19 18 18 17 17 17 17 17 16 16 16 16 16 16 16 15 15 15 15 15 15 15 15 15 15 15 15 15 15 15 15 15 15 15 15 15
19 19 20 20 20 20 20 19 19 19 19 20 19 19 18 18 17 17 17 17 17 17 16 16 16 16 16 16 15 15 15 15 15 15 15 15 15 15 15 15 15 15 15 15 15 15 15 15 15
20 19 20 20 20 20 19 18 19 18 19 19 18 18 18 18 18 17 17 17 17 17 16 16 16 16 16 15 15 15 15 15 15 15 15 15 15 15 15 15 15 15 15 15 15 15 15 15 15
20 19 19 19 20 20 19 18 18 18 18 18 18 18 18 18 18 17 17 17 17 17 16 16 16 16 16 15 15 15 15 15 15 15 15 15 15 15 15 15 15 15 15 15 15 15 15 15 15
19 18 18 19 19 19 19 18 17 18 18 17 17 17 17 17 17 17 17 17 17 16 16 16 16 16 15 15 15 15 15 15 15 15 15 14 14 14 15 15 14 14 14 14 14 14 14 14 14
17 17 18 18 19 18 18 17 17 17 17 16 17 17 17 17 17 17 17 17 17 16 16 16 16 16 15 15 15 15 15 15 15 14 14 14 14 14 14 14 14 14 14 14 14 14 14 14 14
18 17 18 18 18 18 17 16 16 16 16 16 16 16 17 17 17 17 17 17 17 16 16 16 16 16 15 15 15 15 15 15 14 14 14 14 14 14 14 14 14 14 14 14 14 14 14 14 14
18 17 17 18 18 17 17 16 16 16 15 15 15 16 16 16 17 17 17 17 16 16 16 16 16 16 15 15 15 15 15 15 14 14 14 14 14 14 14 14 14 14 14 14 14 14 14 14 14
17 17 17 17 18 17 16 16 16 15 15 15 15 15 16 16 16 16 16 16 16 16 16 16 16 15 15 15 15 15 15 14 14 14 14 14 14 14 14 14 14 14 13 13 13 13 13 13 13
17 17 17 17 17 17 17 16 16 15 15 15 15 16 16 16 16 16 16 16 16 16 15 15 15 15 15 15 15 15 14 14 14 14 14 14 14 14 14 14 13 13 13 13 13 13 13 13 13
17 18 17 17 16 15 16 15 15 15 14 14 15 15 15 16 16 16 16 16 15 15 15 15 15 15 15 15 15 15 14 14 14 14 14 14 14 14 13 13 13 13 13 13 13 13 13 13 13
17 17 17 16 16 15 15 15 14 14 14 14 14 15 15 16 16 16 16 15 15 15 15 15 15 15 14 14 14 14 14 14 14 14 14 14 13 13 13 13 13 13 13 13 13 13 13 13 13
17 16 15 13 14 14 15 14 14 13 14 14 15 15 15 15 16 16 16 15 15 15 15 15 15 14 14 14 14 14 14 14 13 14 14 14 13 13 13 13 13 13 13 13 13 13 13 12 12
16 15 14 15 13 14 14 14 14 15 14 15 15 15 15 15 15 15 16 15 15 15 15 14 14 14 14 14 14 14 13 13 13 13 13 13 13 13 13 13 13 13 13 13 13 12 12 12 12
15 15 14 15 14 13 14 14 14 15 15 15 16 15 15 15 15 15 15 15 15 15 14 14 14 14 14 14 14 13 13 13 13 13 13 13 13 13 13 12 12 12 12 12 12 12 12 12 12
15 14 14 13 14 13 13 13 14 15 15 15 15 15 15 15 15 15 15 15 15 15 14 14 14 14 14 13 13 13 13 13 13 13 13 12 12 12 12 12 12 12 12 12 12 12 12 12 12
15 14 12 13 13 13 14 14 14 15 15 14 14 14 15 15 15 15 15 15 15 15 14 14 14 14 14 13 13 13 13 12 12 12 12 12 12 12 12 12 12 12 12 12 12 12 12 12 12
15 14 13 12 12 13 13 13 14 14 14 13 13 14 15 15 15 15 15 15 15 14 14 14 14 14 13 13 13 13 13 12 12 12 12 12 12 12 12 12 12 12 12 12 11 11 11 11 11
15 14 13 13 13 11 12 13 14 13 14 14 14 15 15 15 15 15 15 15 14 14 14 14 14 13 13 13 13 13 12 12 12 12 12 12 12 12 12 11 11 11 11 11 11 11 11 11 11
Wind_Speed
3 3 3 4 6 6 3 2 0 2 3 2 3 6 6 4 3 2 1 1 2 1 1 3 5 6 7 8 8 9 10 10 10 9 9 10 10 11 12 12 12 12 12 13 13 13 13 13 13
1 1 4 5 5 4 2 2 1 1 4 4 4 5 5 4 2 3 0 1 2 2 2 3 5 7 7 8 9 9 9 10 10 10 10 10 11 11 11 11 11 12 12 12 12 12 12 13 12
1 3 4 5 5 4 2 0 2 3 4 2 4 4 3 2 2 2 2 3 3 3 3 3 5 6 7 8 8 9 9 10 10 10 10 11 10 11 10 10 11 11 11 12 12 12 12 12 12
3 5 5 6 5 0 2 2 3 4 3 4 4 4 3 2 2 2 4 5 5 3 4 3 5 6 7 7 8 9 9 9 10 10 10 10 10 10 10 10 10 10 11 12 12 12 12 12 12
4 5 6 5 3 2 1 1 3 3 2 3 4 4 2 3 4 6 6 5 5 3 4 4 5 6 7 8 8 9 9 9 10 9 9 9 9 9 9 9 10 10 11 12 12 12 12 12 11
5 5 5 3 2 2 2 1 3 4 3 3 4 4 1 1 4 5 6 5 5 4 4 4 6 7 7 8 8 9 9 9 10 10 10 10 10 9 9 9 10 10 11 12 12 12 12 11 12
5 5 4 4 2 2 1 2 3 4 3 2 4 4 1 1 2 5 5 5 4 4 4 5 6 6 7 7 8 8 9 9 10 10 10 10 10 11 10 10 10 10 10 11 11 11 11 11 11
5 5 4 2 2 1 0 2 3 3 3 3 4 5 4 4 4 6 6 5 5 4 4 5 6 6 6 6 7 8 8 9 9 9 10 10 10 10 11 10 10 10 11 11 11 12 12 12 12
4 5 3 3 4 2 0 2 2 3 5 3 2 2 3 7 7 7 5 4 3 3 3 3 4 5 6 6 6 7 7 8 9 8 9 9 9 9 9 10 11 11 11 11 12 11 12 12 12
5 4 3 3 4 3 1 2 3 3 4 2 3 3 5 8 8 7 5 4 3 1 1 2 2 3 5 5 6 7 7 8 9 9 9 8 8 8 8 9 10 10 10 11 11 11 11 10 9
3 4 2 1 3 3 2 2 2 5 2 3 4 5 6 7 7 7 5 4 3 2 1 1 2 3 4 4 5 5 6 7 7 8 8 8 8 8 8 7 7 8 9 8 9 9 9 8 7
3 1 2 2 2 2 3 2 3 2 3 3 5 8 7 7 6 6 5 4 3 2 1 1 2 3 3 3 4 4 4 4 4 6 7 6 5 5 5 5 6 6 6 6 6 6 7 7 7
2 1 2 2 3 3 4 3 2 1 2 5 7 7 7 6 5 3 4 3 4 3 2 2 2 2 2 2 2 3 3 3 3 4 5 5 4 3 4 4 5 6 6 5 4 5 5 5 6
1 2 2 2 2 2 4 2 2 1 3 6 6 5 4 4 4 3 3 3 4 4 3 2 3 2 3 2 1 1 2 2 3 3 3 4 4 3 3 3 4 5 5 5 5 4 4 4 4
3 4 4 2 1 1 4 3 1 1 5 6 4 4 3 2 3 4 4 4 4 4 4 3 3 3 3 2 1 1 2 3 2 2 2 3 4 4 3 2 3 3 5 5 5 5 5 4 4
4 4 2 3 0 1 4 3 4 2 6 5 3 2 1 1 1 1 2 3 3 3 3 3 3 3 3 2 1 1 2 3 2 2 2 2 3 4 4 2 2 3 4 4 3 3 3 4 3
4 1 1 3 1 2 3 3 3 2 5 5 4 3 2 1 1 1 1 2 3 3 3 2 2 3 3 2 2 2 2 2 2 2 2 2 3 4 4 2 2 4 4 3 3 3 3 3 3
2 1 2 3 2 3 3 3 3 1 4 4 3 3 2 2 3 1 1 2 3 3 3 3 2 2 2 2 1 1 2 1 2 2 2 2 3 4 4 3 3 4 3 3 3 3 3 2 2
3 2 3 4 2 3 3 4 4 2 2 2 2 3 3 4 2 1 1 2 3 3 3 2 3 2 2 1 1 1 1 0 0 1 2 3 3 4 4 3 3 3 2 2 2 2 3 2 2
2 1 2 4 1 2 2 4 3 2 3 5 5 4 4 3 0 1 1 2 2 2 2 1 2 1 1 1 1 1 1 1 1 0 2 2 3 4 4 3 2 2 2 2 2 2 1 2 2
0 3 4 3 3 2 0 5 3 2 1 2 3 4 3 4 4 3 2 2 2 2 1 1 1 1 1 2 2 2 3 2 2 1 1 1 2 3 3 4 3 2 2 1 1 1 2 1 1
3 4 4 2 1 2 0 3 6 3 2 3 4 3 4 4 3 3 2 2 2 2 1 1 1 1 1 2 3 3 2 1 1 1 1 1 1 2 2 3 3 3 2 2 1 1 1 2 1
4 1 1 1 2 1 1 2 7 2 3 5 5 5 4 4 4 4 4 3 3 2 1 1 1 1 1 1 2 3 2 1 0 0 0 0 1 1 1 2 3 2 2 2 1 1 1 1 2
1 4 5 5 3 1 3 4 6 3 4 5 5 5 5 4 3 3 2 2 1 1 1 1 1 1 1 1 1 3 3 2 1 0 0 0 1 1 1 1 2 2 2 2 1 1 2 1 2
4 5 4 4 3 5 2 3 6 6 5 5 5 5 5 4 4 3 2 2 2 1 1 1 1 0 1 1 1 1 3 3 2 1 1 1 0 1 2 1 0 1 2 2 2 2 2 2 2
2 6 5 3 4 5 2 4 6 4 3 2 2 2 3 4 4 4 4 3 2 2 2 1 1 1 0 0 0 1 1 2 1 1 1 2 2 2 1 0 0 0 1 1 2 1 1 1 1
4 3 4 4 1 3 5 5 6 3 3 2 1 1 1 3 3 3 3 3 2 3 3 3 2 1 1 1 0 0 1 1 1 1 1 1 1 1 1 1 1 1 1 1 1 1 1 1 1
4 6 5 4 2 4 5 4 4 4 4 3 2 1 2 1 2 2 3 2 2 3 3 3 3 3 3 2 2 1 1 1 1 1 1 1 1 1 1 1 1 1 1 1 1 1 1 1 1
2 3 4 3 4 4 4 6 3 4 4 3 4 3 2 3 3 3 3 3 2 2 3 3 3 3 2 2 2 1 1 1 1 1 1 1 1 0 0 1 1 1 1 1 1 1 1 1 1
3 5 6 4 4 4 3 6 4 3 3 2 3 3 2 3 3 3 2 1 1 2 2 3 3 3 3 3 3 2 2 2 1 1 1 1 1 1 1 1 1 1 1 1 1 1 1 2 2
Wind_Direction
358 52 69 54 54 54 52 0 21 54 59 38 57 77 90 82 88 122 278 142 122 116 64 77 83 81 78 78 77 72 69 70 72 72 72 76 78 76 74 73 71 72 73 73 74 73 71 71 72
358 60 53 57 76 71 11 333 82 103 144 139 75 72 73 68 75 109 146 165 123 111 77 84 90 86 80 79 79 75 70 70 71 71 74 78 80 79 77 73 71 73 74 74 74 75 74 72 70
41 49 71 66 81 125 142 313 119 87 96 95 73 56 75 84 112 150 191 145 111 92 73 78 91 87 83 81 80 78 74 71 71 73 75 77 77 79 79 74 73 75 75 75 75 75 73 74 73
68 44 54 68 74 146 168 178 142 116 67 57 93 67 54 32 139 150 128 120 108 87 67 72 87 86 83 82 80 77 74 70 70 72 73 74 74 76 77 76 75 76 76 76 77 75 72 75 75
61 70 62 59 43 1 36 127 127 102 81 61 92 96 53 10 83 113 117 114 114 93 66 70 87 85 82 79 79 77 74 72 71 70 70 71 72 73 73 74 77 78 76 75 75 74 71 72 73
53 65 81 86 40 8 25 78 93 86 91 91 99 104 77 59 107 122 114 112 113 102 72 59 77 82 81 79 78 77 76 74 71 69 69 68 66 67 69 71 74 75 74 71 70 71 70 70 71
91 85 108 123 93 14 41 78 100 108 108 133 130 110 116 148 148 122 107 99 87 80 66 48 54 63 70 76 79 79 76 75 70 68 68 66 65 65 65 65 71 73 72 69 70 71 68 66 68
110 97 90 115 134 231 314 76 83 103 117 109 119 137 187 196 134 101 87 79 76 66 57 47 49 53 54 60 74 76 76 74 71 70 69 66 60 58 59 61 69 69 68 67 68 67 66 66 65
83 78 125 181 170 203 129 88 61 66 93 74 77 159 171 136 122 107 91 74 73 71 50 50 48 47 53 62 67 69 73 71 68 67 67 61 52 48 49 59 65 66 65 63 63 63 62 61 61
77 111 193 200 177 167 125 107 128 86 72 63 57 65 105 126 133 133 138 140 137 133 82 59 57 53 56 63 62 57 58 61 63 61 58 57 54 47 50 52 58 61 61 58 58 59 57 56 54
94 146 177 147 161 142 115 91 104 118 120 197 177 154 137 138 143 150 158 159 170 168 133 89 83 69 68 61 66 61 60 60 60 60 60 60 56 50 46 42 40 45 51 49 52 54 53 58 58
91 80 139 138 110 112 128 117 93 131 233 207 163 148 144 149 162 170 171 174 162 142 137 122 109 95 80 77 73 70 68 64 58 55 60 63 57 49 43 46 40 45 50 52 54 58 54 56 56
76 44 47 98 84 97 93 80 113 352 33 94 114 129 149 160 169 174 172 173 162 166 169 157 135 119 102 87 81 78 70 71 72 67 64 71 65 54 47 44 48 49 54 58 58 62 59 52 51
98 75 49 55 72 68 98 61 84 307 96 106 125 146 158 165 170 169 176 182 182 181 182 173 156 148 130 120 110 100 85 84 82 76 75 83 83 73 61 53 49 48 54 61 66 63 63 56 56
79 64 31 18 66 112 100 26 274 197 125 125 142 152 158 174 175 189 199 193 191 187 184 180 172 148 139 146 148 125 110 105 91 88 92 92 96 94 85 70 51 46 57 68 69 60 59 57 51
55 63 24 304 73 138 120 257 285 159 137 146 159 160 172 218 235 240 199 175 168 158 169 188 177 155 156 152 149 128 112 108 100 100 101 100 104 104 94 87 64 58 64 69 69 53 53 46 44
41 77 260 297 279 130 149 239 291 147 152 166 179 182 190 252 329 327 122 146 144 139 137 148 165 160 161 147 132 118 103 99 97 98 95 98 100 104 99 99 84 76 72 66 65 52 59 52 38
216 216 258 264 286 135 175 248 289 193 171 190 201 203 207 219 243 243 145 128 118 109 104 98 98 131 142 129 101 76 77 65 70 87 108 115 109 107 100 91 79 79 75 58 54 58 48 53 42
165 181 253 264 247 165 207 251 273 230 180 212 227 219 222 230 246 128 116 106 97 86 90 88 84 79 111 106 132 146 184 240 328 66 101 118 118 111 104 97 85 84 79 75 72 70 61 42 29
132 172 275 296 328 174 220 272 279 205 212 214 212 216 221 229 260 140 125 102 106 110 106 99 98 103 117 147 145 152 159 168 205 50 66 97 116 123 122 119 116 105 91 74 70 76 79 39 39
204 199 234 259 348 28 35 314 304 270 224 222 215 215 214 206 208 201 176 161 134 132 164 181 170 131 86 88 97 75 56 40 32 25 21 30 104 125 127 134 137 126 125 133 116 105 110 98 22
261 245 220 205 92 285 99 285 292 284 292 252 239 228 221 216 197 182 176 173 184 194 177 139 126 98 94 98 114 128 131 128 256 249 244 351 80 120 135 134 137 139 140 148 171 124 128 124 99
230 301 129 141 169 324 340 211 289 325 291 269 245 229 225 209 196 183 183 190 196 187 168 134 99 82 83 99 132 132 118 138 130 36 95 50 20 63 118 138 144 151 160 169 158 113 110 128 143
140 53 51 50 71 292 247 190 284 255 244 261 242 227 218 199 186 183 177 161 146 113 99 73 89 69 74 85 100 146 144 135 119 154 174 309 334 332 322 164 162 170 171 175 172 143 122 119 120
76 78 26 356 1 260 262 199 253 256 247 234 236 226 213 190 175 170 163 167 164 139 132 108 115 47 38 75 75 165 164 162 170 201 206 200 299 313 293 285 187 173 179 172 151 138 135 132 125
155 137 156 216 244 281 302 234 256 271 279 259 229 202 182 183 185 186 194 191 196 196 193 186 187 214 199 111 116 122 149 165 190 197 214 212 222 243 251 227 144 101 142 158 151 149 164 143 149
138 160 167 148 211 276 279 284 305 332 333 337 12 94 190 198 197 203 204 195 198 207 208 204 205 220 233 224 195 119 137 170 199 209 213 239 252 249 225 174 148 99 94 123 146 150 193 153 162
140 145 105 130 178 270 288 280 270 294 294 313 330 293 258 242 219 221 215 212 212 210 206 200 200 209 214 207 211 227 216 216 203 180 217 257 287 286 213 195 153 130 87 85 142 156 195 143 177
111 115 126 138 163 182 265 273 237 246 256 251 264 264 235 228 228 228 225 220 213 204 196 200 208 213 213 208 213 217 213 213 189 190 245 248 253 262 191 207 184 179 167 147 125 177 181 178 225
178 176 154 168 220 190 211 266 285 263 268 251 273 281 263 238 236 232 218 200 205 214 216 212 214 213 220 212 200 205 196 180 191 229 250 256 250 224 192 171 173 197 190 176 165 193 212 204 226
Height
1502 1501 1501 1503 1507 1520 1526 1522 1518 1518 1518 1518 1518 1518 1520 1523 1526 1531 1527 1525 1525 1524 1524 1524 1524 1523 1523 1523 1522 1521 1521 1520 1519 1519 1518 1518 1518 1518 1517 1517 1517 1517 1516 1516 1516 1517 1517 1517 1517
1502 1502 1504 1504 1517 1532 1529 1520 1519 1518 1518 1519 1519 1520 1521 1523 1524 1525 1525 1525 1526 1526 1525 1525 1525 1525 1524 1524 1523 1523 1522 1521 1521 1520 1519 1519 1519 1519 1519 1519 1519 1519 1518 1518 1518 1518 1518 1518 1518
1503 1503 1505 1509 1522 1530 1526 1520 1518 1518 1518 1519 1520 1521 1523 1525 1525 1526 1526 1526 1527 1527 1526 1526 1526 1526 1526 1525 1525 1524 1523 1523 1522 1522 1521 1521 1521 1521 1521 1521 1521 1521 1521 1520 1520 1520 1520 1520 1520
1505 1506 1508 1517 1524 1523 1520 1518 1518 1518 1519 1520 1521 1523 1525 1526 1526 1527 1527 1527 1527 1527 1527 1527 1527 1527 1527 1526 1526 1525 1525 1524 1524 1523 1523 1523 1523 1523 1523 1522 1522 1522 1522 1522 1522 1522 1522 1521 1521
1505 1507 1516 1525 1524 1520 1518 1518 1518 1518 1520 1521 1522 1524 1526 1527 1527 1527 1528 1528 1528 1528 1528 1528 1528 1528 1528 1527 1527 1527 1526 1526 1525 1525 1525 1525 1524 1524 1524 1524 1524 1524 1524 1524 1524 1524 1524 1523 1523
1507 1510 1526 1532 1526 1521 1519 1519 1519 1520 1521 1522 1523 1525 1527 1528 1528 1528 1529 1529 1529 1529 1529 1529 1529 1529 1528 1528 1528 1528 1528 1527 1527 1527 1526 1526 1526 1526 1526 1526 1526 1526 1526 1526 1525 1525 1525 1525 1524
1510 1516 1526 1528 1528 1524 1520 1520 1520 1521 1522 1524 1524 1526 1527 1528 1529 1529 1530 1530 1530 1530 1530 1530 1530 1530 1530 1530 1529 1529 1529 1529 1528 1528 1528 1528 1528 1527 1527 1527 1527 1527 1527 1527 1527 1527 1526 1526 1526
1510 1517 1526 1528 1528 1525 1521 1520 1521 1522 1523 1524 1525 1526 1527 1528 1529 1530 1531 1531 1531 1531 1531 1531 1531 1531 1531 1531 1530 1530 1530 1530 1530 1530 1530 1529 1529 1529 1529 1529 1528 1528 1528 1528 1528 1528 1528 1527 1527
1512 1522 1529 1527 1526 1523 1521 1521 1522 1523 1523 1525 1525 1526 1527 1528 1529 1530 1531 1531 1532 1532 1532 1532 1532 1532 1532 1532 1532 1532 1532 1532 1531 1531 1531 1531 1531 1530 1530 1530 1530 1530 1529 1529 1529 1529 1529 1528 1528
1513 1525 1524 1520 1520 1520 1521 1521 1523 1524 1524 1525 1526 1526 1527 1528 1529 1530 1531 1531 1532 1532 1533 1533 1533 1533 1533 1533 1533 1533 1533 1533 1532 1532 1532 1532 1532 1532 1532 1531 1531 1531 1531 1531 1530 1530 1530 1530 1529
1515 1520 1519 1519 1519 1520 1521 1522 1523 1524 1526 1525 1525 1526 1527 1528 1530 1530 1531 1532 1532 1533 1534 1534 1534 1534 1534 1534 1534 1534 1534 1534 1534 1534 1534 1534 1533 1533 1533 1533 1533 1532 1532 1532 1532 1531 1531 1531 1530
1516 1518 1518 1519 1519 1520 1521 1523 1524 1525 1525 1525 1525 1526 1528 1529 1530 1531 1531 1532 1533 1534 1534 1534 1535 1535 1535 1535 1535 1535 1535 1535 1535 1535 1535 1535 1535 1534 1534 1534 1534 1534 1533 1533 1533 1532 1532 1532 1532
1517 1519 1519 1520 1520 1521 1522 1523 1524 1525 1525 1526 1526 1527 1528 1529 1530 1531 1532 1533 1533 1534 1534 1535 1535 1535 1535 1535 1535 1535 1535 1535 1536 1536 1536 1536 1536 1535 1535 1535 1535 1535 1534 1534 1534 1533 1533 1533 1533
1519 1519 1520 1521 1521 1522 1523 1525 1525 1526 1526 1526 1527 1528 1529 1529 1530 1531 1532 1532 1533 1534 1534 1535 1535 1536 1536 1536 1536 1536 1536 1536 1536 1536 1536 1536 1536 1536 1536 1536 1536 1535 1535 1535 1535 1534 1534 1534 1533
1519 1521 1522 1522 1522 1523 1524 1527 1527 1526 1526 1526 1527 1528 1529 1530 1530 1531 1531 1532 1533 1534 1535 1535 1535 1536 1536 1536 1536 1536 1537 1537 1537 1537 1537 1537 1537 1537 1537 1537 1536 1536 1536 1536 1535 1535 1535 1534 1534
1521 1526 1531 1525 1523 1523 1528 1534 1527 1526 1526 1526 1528 1528 1529 1530 1530 1531 1531 1532 1533 1534 1535 1535 1535 1536 1536 1536 1536 1537 1537 1537 1537 1537 1537 1537 1537 1537 1537 1537 1537 1536 1536 1536 1536 1535 1535 1535 1534
1529 1535 1534 1528 1523 1524 1527 1531 1527 1526 1526 1526 1527 1528 1529 1529 1530 1531 1531 1532 1533 1534 1534 1535 1535 1535 1536 1536 1536 1536 1537 1537 1537 1537 1538 1538 1538 1538 1537 1537 1537 1537 1537 1537 1536 1536 1536 1535 1534
1535 1535 1534 1532 1525 1526 1529 1530 1527 1526 1525 1526 1527 1527 1528 1529 1529 1530 1531 1532 1533 1533 1534 1534 1534 1535 1535 1535 1536 1536 1536 1536 1537 1537 1537 1537 1537 1538 1537 1537 1537 1537 1537 1537 1536 1536 1536 1535 1535
1528 1532 1534 1530 1524 1527 1529 1529 1527 1525 1525 1526 1526 1527 1527 1528 1529 1530 1530 1531 1532 1533 1533 1534 1534 1534 1534 1534 1535 1535 1535 1536 1536 1536 1537 1537 1537 1537 1537 1537 1537 1537 1537 1536 1536 1536 1536 1535 1535
1528 1532 1533 1529 1524 1527 1529 1528 1525 1525 1525 1525 1525 1525 1526 1526 1527 1528 1529 1530 1530 1531 1532 1533 1533 1533 1533 1534 1534 1534 1534 1535 1535 1536 1536 1537 1537 1537 1537 1537 1537 1537 1536 1536 1536 1536 1535 1535 1535
1529 1532 1531 1531 1528 1527 1529 1531 1526 1523 1523 1523 1524 1524 1524 1525 1526 1527 1528 1528 1529 1530 1531 1531 1532 1532 1533 1533 1533 1533 1534 1534 1534 1534 1535 1536 1536 1536 1536 1536 1536 1536 1536 1536 1535 1535 1535 1535 1535
1532 1525 1526 1528 1534 1539 1534 1544 1530 1524 1523 1521 1521 1522 1522 1523 1524 1525 1526 1527 1528 1529 1530 1531 1531 1531 1531 1532 1532 1532 1532 1532 1532 1533 1534 1535 1535 1535 1535 1535 1535 1535 1535 1535 1535 1535 1535 1535 1534
1526 1523 1526 1528 1534 1539 1538 1543 1536 1526 1524 1521 1519 1520 1520 1521 1523 1524 1525 1526 1527 1528 1529 1529 1530 1530 1530 1530 1530 1530 1531 1531 1531 1532 1533 1533 1534 1534 1534 1534 1534 1534 1534 1534 1534 1534 1534 1534 1533
1523 1526 1530 1536 1540 1548 1540 1543 1539 1530 1523 1519 1517 1517 1518 1519 1521 1523 1525 1526 1526 1527 1528 1528 1528 1528 1529 1529 1529 1529 1529 1530 1530 1531 1531 1531 1532 1532 1533 1533 1533 1533 1533 1533 1533 1533 1533 1533 1532
1526 1537 1548 1549 1554 1550 1538 1540 1536 1521 1517 1516 1515 1515 1516 1517 1519 1521 1523 1524 1525 1525 1526 1527 1527 1527 1527 1527 1528 1528 1528 1528 1529 1529 1529 1530 1530 1530 1530 1531 1531 1531 1531 1531 1532 1532 1532 1531 1531
1529 1535 1550 1556 1557 1550 1539 1540 1528 1516 1514 1513 1513 1514 1515 1516 1518 1519 1521 1522 1524 1524 1525 1525 1526 1526 1526 1526 1526 1526 1527 1527 1527 1527 1528 1528 1528 1528 1529 1529 1529 1529 1530 1530 1530 1530 1530 1530 1530
1530 1535 1535 1547 1548 1551 1544 1535 1523 1515 1514 1513 1513 1513 1514 1515 1517 1518 1520 1521 1522 1523 1523 1524 1524 1525 1525 1525 1525 1525 1525 1525 1526 1526 1526 1526 1526 1527 1527 1527 1527 1527 1528 1528 1528 1529 1529 1529 1529
1525 1530 1541 1547 1553 1555 1544 1539 1532 1520 1516 1514 1513 1513 1514 1515 1516 1517 1518 1519 1520 1521 1522 1522 1523 1523 1523 1523 1523 1524 1524 1524 1525 1525 1524 1525 1525 1525 1525 1525 1525 1525 1525 1526 1526 1527 1527 1527 1527
1529 1532 1537 1545 1547 1553 1552 1541 1521 1518 1515 1514 1513 1513 1513 1513 1514 1515 1516 1517 1518 1519 1520 1520 1521 1521 1521 1521 1522 1522 1522 1523 1523 1523 1523 1523 1523 1523 1523 1523 1523 1523 1523 1524 1524 1524 1525 1525 1525
1523 1527 1534 1542 1545 1547 1548 1540 1516 1514 1513 1512 1512 1512 1512 1513 1513 1514 1514 1515 1516 1516 1517 1517 1518 1518 1519 1519 1519 1520 1520 1521 1521 1521 1521 1521 1521 1521 1521 1521 1521 1521 1521 1521 1521 1521 1522 1522 1522